KI5NXU Weather Reports


Display with metric or nautical units.
time (UTC)temp
F
wind
direction
speed
MPH
gust
MPH
rain 1hr
in
rain 24hr
in
rain mn
in
humidity
%
barometer
mb
20260508030855 62 140 0.0 0.0 0.00 0.00 0.00 76 1014.6
20260508030353 62 141 0.0 0.0 0.00 0.00 0.00 76 1014.6
20260508025850 63 141 0.0 0.0 0.00 0.00 0.00 75 1014.5
20260508025347 63 146 0.0 0.0 0.00 0.00 0.00 75 1014.5
20260508024844 63 143 0.0 0.0 0.00 0.00 0.00 74 1014.4
20260508024340 63 152 0.0 0.0 0.00 0.00 0.00 75 1014.1
20260508023837 63 155 0.0 0.0 0.00 0.00 0.00 75 1014.2
20260508023334 63 143 0.0 0.0 0.00 0.00 0.00 75 1014.0
20260508022831 63 161 0.0 2.0 0.00 0.00 0.00 74 1014.0
20260508022326 63 147 0.0 0.0 0.00 0.00 0.00 74 1014.0
20260508021824 63 149 0.0 0.0 0.00 0.00 0.00 73 1014.1
20260508021319 63 136 0.0 0.0 0.00 0.00 0.00 73 1013.9
20260508020816 63 140 0.0 0.0 0.00 0.00 0.00 73 1013.9
20260508020314 63 136 0.0 0.0 0.00 0.00 0.00 74 1013.8
20260508015810 63 137 0.0 0.0 0.00 0.00 0.00 73 1013.6
20260508015308 64 139 0.0 0.0 0.00 0.00 0.00 72 1013.8
20260508014805 64 139 0.0 0.0 0.00 0.00 0.00 72 1013.8
20260508014302 64 144 0.0 0.0 0.00 0.00 0.00 72 1013.7
20260508013757 64 149 0.0 0.0 0.00 0.00 0.00 72 1013.3
20260508013254 64 153 0.0 0.0 0.00 0.00 0.00 71 1013.7
20260508012751 64 145 0.0 0.0 0.00 0.00 0.00 71 1013.8
20260508012248 65 143 0.0 0.0 0.00 0.00 0.00 70 1013.6
20260508011746 65 146 0.0 1.0 0.00 0.00 0.00 69 1013.6
20260508011243 66 155 0.0 1.0 0.00 0.00 0.00 68 1013.7
20260508010740 66 148 0.0 0.0 0.00 0.00 0.00 67 1013.6
20260508010238 66 157 0.0 0.0 0.00 0.00 0.00 67 1013.8
20260508005735 66 154 0.0 0.0 0.00 0.00 0.00 67 1013.6
20260508005232 67 171 0.0 0.0 0.00 0.00 0.00 66 1013.9
20260508004727 67 155 0.0 0.0 0.00 0.00 0.00 64 1013.8
20260508004224 68 152 0.0 0.0 0.00 0.00 0.00 63 1013.6
20260508003721 68 143 0.0 0.0 0.00 0.00 0.00 62 1013.9
20260508003218 68 151 0.0 0.0 0.00 0.00 0.00 62 1013.9
20260508002714 69 150 0.0 0.0 0.00 0.00 0.00 61 1014.0
20260508002212 69 148 0.0 0.0 0.00 0.00 0.00 61 1013.9
20260508001707 69 167 0.0 1.0 0.00 0.00 0.00 61 1013.8
20260508001203 69 164 0.0 0.0 0.00 0.00 0.00 60 1013.8
20260508000700 70 152 0.0 1.0 0.00 0.00 0.00 59 1013.7
20260508000157 70 148 0.0 0.0 0.00 0.00 0.00 59 1014.0
20260507235653 70 159 0.0 2.0 0.00 0.00 0.00 59 1013.9
20260507235151 71 152 0.0 0.0 0.00 0.00 0.00 58 1014.1
20260507234648 71 152 0.0 0.0 0.00 0.00 0.00 58 1014.1
20260507234144 71 161 0.0 0.0 0.00 0.00 0.00 56 1014.1
20260507233641 71 152 0.0 1.0 0.00 0.00 0.00 58 1014.1
20260507233139 71 149 0.0 0.0 0.00 0.00 0.00 55 1014.2
20260507232635 72 160 0.0 0.0 0.00 0.00 0.00 56 1014.1
20260507232133 73 166 0.0 0.0 0.00 0.00 0.00 53 1014.1
20260507231629 73 127 0.0 0.0 0.00 0.00 0.00 52 1014.0
20260507231126 74 133 1.0 1.0 0.00 0.00 0.00 50 1014.1
20260507230622 74 131 0.0 0.0 0.00 0.00 0.00 51 1013.8
20260507230120 75 132 0.0 0.0 0.00 0.00 0.00 49 1014.1
20260507225615 75 153 1.0 2.0 0.00 0.00 0.00 50 1014.3
20260507225111 75 133 0.0 0.0 0.00 0.00 0.00 50 1014.4
20260507224607 73 126 0.0 0.0 0.00 0.00 0.00 51 1014.2
20260507224104 74 153 0.0 0.0 0.00 0.00 0.00 50 1014.4
20260507223600 74 131 0.0 1.0 0.00 0.00 0.00 50 1014.4
20260507223057 75 97 0.0 0.0 0.00 0.00 0.00 47 1014.5
20260507222554 76 174 1.0 2.0 0.00 0.00 0.00 47 1014.5
20260507222050 75 137 0.0 0.0 0.00 0.00 0.00 47 1014.6
20260507221547 76 145 0.0 0.0 0.00 0.00 0.00 46 1014.5
20260507221044 77 133 0.0 0.0 0.00 0.00 0.00 44 1014.7
20260507220541 76 152 0.0 0.0 0.00 0.00 0.00 46 1014.8
20260507220038 77 141 0.0 0.0 0.00 0.00 0.00 46 1014.5
20260507215534 76 146 1.0 2.0 0.00 0.00 0.00 45 1014.5
20260507215033 73 147 1.0 2.0 0.00 0.00 0.00 47 1014.9
20260507214530 75 98 0.0 0.0 0.00 0.00 0.00 48 1014.7
20260507214025 75 158 0.0 0.0 0.00 0.00 0.00 47 1014.8
20260507213522 75 148 0.0 0.0 0.00 0.00 0.00 48 1014.8
20260507213019 75 136 0.0 0.0 0.00 0.00 0.00 48 1014.9
20260507212514 74 148 0.0 0.0 0.00 0.00 0.00 48 1015.0
20260507212011 74 168 0.0 1.0 0.00 0.00 0.00 50 1015.0
20260507211508 74 135 0.0 0.0 0.00 0.00 0.00 49 1015.1
20260507211004 74 123 0.0 0.0 0.00 0.00 0.00 49 1015.3
20260507210501 75 170 0.0 1.0 0.00 0.00 0.00 48 1015.2
20260507205958 74 126 0.0 0.0 0.00 0.00 0.00 50 1015.4
20260507205455 75 149 0.0 0.0 0.00 0.00 0.00 49 1015.6
20260507204951 74 148 0.0 0.0 0.00 0.00 0.00 49 1015.5
20260507204448 74 175 0.0 0.0 0.00 0.00 0.00 50 1015.6
20260507203945 74 170 0.0 0.0 0.00 0.00 0.00 48 1015.5
20260507203443 74 171 0.0 0.0 0.00 0.00 0.00 48 1015.5
20260507202939 74 68 0.0 0.0 0.00 0.00 0.00 47 1015.8
20260507202436 72 81 0.0 0.0 0.00 0.00 0.00 50 1015.6
20260507201932 73 72 1.0 3.0 0.00 0.00 0.00 49 1015.7
20260507201432 74 142 0.0 0.0 0.00 0.00 0.00 48 1015.8
20260507200930 73 85 0.0 0.0 0.00 0.00 0.00 49 1015.5
20260507200425 73 82 0.0 0.0 0.00 0.00 0.00 49 1015.5
20260507195921 71 343 0.0 0.0 0.00 0.00 0.00 53 1015.6
20260507195419 73 99 0.0 0.0 0.00 0.00 0.00 49 1015.5
20260507194916 73 120 0.0 0.0 0.00 0.00 0.00 48 1015.6
20260507194412 73 76 0.0 0.0 0.00 0.00 0.00 48 1015.8
20260507193909 73 106 0.0 0.0 0.00 0.00 0.00 49 1015.8
20260507193406 73 142 0.0 0.0 0.00 0.00 0.00 48 1016.0
20260507192902 73 352 0.0 0.0 0.00 0.00 0.00 49 1016.0
20260507192358 72 47 0.0 0.0 0.00 0.00 0.00 49 1016.1
20260507191855 72 95 0.0 0.0 0.00 0.00 0.00 49 1016.1
20260507191351 73 55 0.0 0.0 0.00 0.00 0.00 49 1016.4
20260507190848 70 308 9.0 10.0 0.00 0.00 0.00 52 1016.6
20260507190346 69 25 0.0 0.0 0.00 0.00 0.00 52 1016.6
20260507185845 69 302 0.0 0.0 0.00 0.00 0.00 51 1016.7
20260507185342 68 333 1.0 2.0 0.00 0.00 0.00 53 1016.6
20260507184838 69 46 0.0 0.0 0.00 0.00 0.00 52 1016.8
20260507184337 69 319 1.0 2.0 0.00 0.00 0.00 52 1017.0
20260507183833 69 12 0.0 0.0 0.00 0.00 0.00 53 1016.8
20260507183330 69 357 1.0 5.0 0.00 0.00 0.00 53 1016.9
20260507182828 71 281 0.0 1.0 0.00 0.00 0.00 53 1017.0
20260507182324 68 345 3.0 5.0 0.00 0.00 0.00 52 1016.8
20260507181820 69 347 1.0 2.0 0.00 0.00 0.00 54 1016.9
20260507181316 69 358 0.0 1.0 0.00 0.00 0.00 52 1017.0
20260507180813 69 113 0.0 0.0 0.00 0.00 0.00 51 1017.3
20260507180310 69 86 0.0 1.0 0.00 0.00 0.00 51 1017.4
20260507175805 69 9 3.0 5.0 0.00 0.00 0.00 52 1017.2
20260507175306 67 68 6.0 7.0 0.00 0.00 0.00 53 1017.6
20260507174759 67 359 1.0 2.0 0.00 0.00 0.00 56 1017.4
20260507174257 68 3 5.0 8.0 0.00 0.00 0.00 53 1017.7
20260507173755 69 71 2.0 2.0 0.00 0.00 0.00 53 1017.7
20260507173252 68 91 3.0 5.0 0.00 0.00 0.00 53 1017.7
20260507172748 68 300 6.0 9.0 0.00 0.00 0.00 53 1017.8
20260507172245 69 13 8.0 9.0 0.00 0.00 0.00 53 1018.0
20260507171740 68 109 1.0 1.0 0.00 0.00 0.00 51 1017.9
20260507171238 69 114 1.0 1.0 0.00 0.00 0.00 52 1018.3
20260507170734 69 139 1.0 2.0 0.00 0.00 0.00 52 1018.6
20260507170231 68 28 1.0 2.0 0.00 0.00 0.00 55 1018.3
20260507165727 69 341 2.0 2.0 0.00 0.00 0.00 53 1018.6
20260507165223 68 86 2.0 3.0 0.00 0.00 0.00 53 1018.7
20260507164719 68 66 8.0 9.0 0.00 0.00 0.00 54 1018.6
20260507164217 68 348 5.0 6.0 0.00 0.00 0.00 56 1018.7
20260507163714 69 37 6.0 9.0 0.00 0.00 0.00 55 1018.8
20260507163212 66 326 5.0 7.0 0.00 0.00 0.00 58 1018.8
20260507162708 64 6 3.0 5.0 0.00 0.00 0.00 60 1018.9
20260507162204 65 313 3.0 3.0 0.00 0.00 0.00 62 1018.7
20260507161700 65 312 4.0 6.0 0.00 0.00 0.00 61 1019.0
20260507161156 64 2 6.0 8.0 0.00 0.00 0.00 63 1018.7
20260507160653 63 307 3.0 5.0 0.00 0.00 0.00 67 1018.8
20260507160150 64 339 7.0 8.0 0.00 0.00 0.00 65 1018.8
20260507155645 64 340 5.0 6.0 0.00 0.00 0.00 67 1018.9
20260507155142 63 9 3.0 3.0 0.00 0.00 0.00 69 1018.9
20260507154638 62 343 5.0 5.0 0.00 0.00 0.00 69 1018.9
20260507154137 63 356 5.0 6.0 0.00 0.00 0.00 69 1018.8
20260507153633 62 298 5.0 6.0 0.00 0.00 0.00 72 1018.9
20260507153129 62 295 4.0 5.0 0.00 0.00 0.00 72 1019.1
20260507152626 61 287 3.0 3.0 0.00 0.00 0.00 73 1019.3
20260507152121 60 34 1.0 2.0 0.00 0.00 0.00 73 1019.3
20260507151618 60 37 2.0 3.0 0.00 0.00 0.00 75 1019.3
20260507151115 60 287 3.0 5.0 0.00 0.00 0.00 77 1019.0
20260507150612 59 320 2.0 2.0 0.00 0.00 0.00 76 1019.4
20260507150109 60 344 3.0 3.0 0.00 0.00 0.00 74 1019.4
20260507145603 59 352 2.0 2.0 0.00 0.00 0.00 77 1019.6
20260507145056 59 308 3.0 3.0 0.00 0.00 0.00 77 1019.6
20260507144552 58 335 3.0 3.0 0.00 0.00 0.00 79 1019.5
20260507144050 59 9 2.0 2.0 0.00 0.00 0.00 77 1019.7
20260507143547 57 84 0.0 0.0 0.00 0.00 0.00 81 1019.5
20260507143045 57 4 4.0 5.0 0.00 0.00 0.00 82 1019.6
20260507142544 57 40 1.0 1.0 0.00 0.00 0.00 82 1019.5
20260507142042 56 353 1.0 1.0 0.00 0.00 0.00 84 1019.8
20260507141538 56 25 1.0 2.0 0.00 0.00 0.00 84 1019.7
20260507141035 56 30 0.0 0.0 0.00 0.00 0.00 85 1019.8
20260507140532 55 33 1.0 1.0 0.00 0.00 0.00 86 1020.0
20260507140029 55 13 3.0 3.0 0.00 0.00 0.00 86 1019.8
20260507135526 54 1 3.0 5.0 0.00 0.00 0.00 87 1019.7
20260507135023 54 349 1.0 2.0 0.00 0.00 0.00 87 1020.0
20260507134520 55 41 2.0 2.0 0.00 0.00 0.00 86 1020.0
20260507134015 54 35 1.0 1.0 0.00 0.00 0.00 87 1020.0
20260507133512 54 55 1.0 1.0 0.00 0.00 0.00 87 1019.7
20260507133010 54 63 1.0 1.0 0.00 0.00 0.00 88 1019.7
20260507132506 54 41 1.0 1.0 0.00 0.00 0.00 89 1020.0
20260507132002 53 47 1.0 1.0 0.00 0.00 0.00 90 1020.0
20260507131459 53 82 0.0 0.0 0.00 0.00 0.00 90 1019.8
20260507130956 53 97 0.0 0.0 0.00 0.00 0.00 91 1019.8
20260507130453 52 100 0.0 0.0 0.00 0.00 0.00 91 1019.8
20260507125952 51 100 0.0 0.0 0.00 0.00 0.00 91 1020.0
20260507125450 51 100 0.0 0.0 0.00 0.00 0.00 92 1019.8
20260507124947 50 100 0.0 0.0 0.00 0.00 0.00 92 1019.7
20260507124443 50 100 0.0 0.0 0.00 0.00 0.00 92 1019.6
20260507123941 50 101 0.0 0.0 0.00 0.00 0.00 92 1019.6
20260507123439 49 100 0.0 0.0 0.00 0.00 0.00 92 1019.5
20260507122935 50 100 0.0 0.0 0.00 0.00 0.00 92 1019.3
20260507122430 49 100 0.0 0.0 0.00 0.00 0.00 92 1019.6
20260507121927 48 100 0.0 0.0 0.00 0.00 0.00 92 1019.4
20260507121422 48 98 0.0 0.0 0.00 0.00 0.00 92 1019.5
20260507120919 48 94 0.0 0.0 0.00 0.00 0.00 92 1019.5
20260507120415 48 93 0.0 0.0 0.00 0.00 0.00 92 1019.1
20260507115912 48 93 0.0 0.0 0.00 0.00 0.00 92 1019.4
20260507115408 49 93 0.0 0.0 0.00 0.00 0.00 92 1019.1
20260507114903 48 89 0.0 0.0 0.00 0.00 0.00 92 1019.5
20260507114401 49 82 1.0 1.0 0.00 0.00 0.00 92 1019.2
20260507113858 49 59 0.0 0.0 0.00 0.00 0.00 92 1019.1
20260507113355 50 51 0.0 0.0 0.00 0.00 0.00 91 1019.0
20260507112852 50 40 0.0 0.0 0.00 0.00 0.00 91 1019.0
20260507112349 51 38 1.0 1.0 0.00 0.00 0.00 91 1019.0
20260507111847 51 37 0.0 0.0 0.00 0.00 0.00 91 1019.1
20260507111343 51 25 0.0 0.0 0.00 0.00 0.00 91 1019.0
20260507110839 51 12 2.0 3.0 0.00 0.00 0.00 91 1019.2
20260507110336 51 11 2.0 2.0 0.00 0.00 0.00 90 1019.4
20260507105833 52 17 2.0 2.0 0.00 0.00 0.00 90 1019.3
20260507105329 52 38 1.0 1.0 0.00 0.00 0.00 90 1019.2
20260507104826 52 19 2.0 2.0 0.00 0.00 0.00 90 1019.1
20260507104323 52 33 0.0 1.0 0.00 0.00 0.00 90 1019.5
20260507103819 52 19 1.0 1.0 0.00 0.00 0.00 90 1019.2
20260507103315 52 34 1.0 1.0 0.00 0.00 0.00 90 1019.0
20260507102812 52 15 1.0 1.0 0.00 0.00 0.00 90 1019.2
20260507102309 52 32 0.0 0.0 0.00 0.00 0.00 90 1018.9
20260507101805 52 14 1.0 1.0 0.00 0.00 0.00 89 1019.1
20260507101304 52 3 1.0 1.0 0.00 0.00 0.00 89 1019.1
20260507100802 52 354 1.0 2.0 0.00 0.00 0.00 89 1019.1
20260507100300 52 327 3.0 3.0 0.00 0.00 0.00 89 1018.9
20260507095758 53 319 2.0 2.0 0.00 0.00 0.00 89 1019.0
20260507095254 53 327 2.0 3.0 0.00 0.00 0.00 89 1019.0
20260507094751 53 340 3.0 5.0 0.00 0.00 0.00 89 1018.8
20260507094248 53 29 2.0 2.0 0.00 0.00 0.00 89 1018.7
20260507093745 53 25 0.0 0.0 0.00 0.00 0.00 89 1018.7
20260507093244 53 342 2.0 3.0 0.00 0.00 0.00 88 1018.5
20260507092741 53 89 2.0 2.0 0.00 0.00 0.00 89 1018.4
20260507092236 52 86 0.0 1.0 0.00 0.00 0.00 89 1018.3
20260507091733 52 76 1.0 1.0 0.00 0.00 0.00 90 1018.1
20260507091230 51 81 1.0 1.0 0.00 0.00 0.00 90 1018.1
20260507090725 51 114 0.0 0.0 0.00 0.00 0.00 90 1018.2
20260507090222 51 118 0.0 0.0 0.00 0.00 0.00 90 1018.0
20260507085719 52 118 1.0 1.0 0.00 0.00 0.00 90 1018.2
20260507085216 52 107 1.0 2.0 0.00 0.00 0.00 90 1017.9
20260507084713 51 98 0.0 0.0 0.00 0.00 0.00 90 1018.1
20260507084209 51 105 0.0 1.0 0.00 0.00 0.00 90 1018.1
20260507083707 52 93 0.0 0.0 0.00 0.00 0.00 89 1017.7
20260507083204 52 88 0.0 0.0 0.00 0.00 0.00 88 1017.8
20260507082659 53 91 1.0 1.0 0.00 0.00 0.00 88 1017.6
20260507082155 52 76 1.0 1.0 0.00 0.00 0.00 89 1017.5
20260507081653 52 76 1.0 1.0 0.00 0.00 0.00 89 1017.6
20260507081149 52 84 0.0 0.0 0.00 0.00 0.00 89 1017.8
20260507080645 52 86 0.0 0.0 0.00 0.00 0.00 88 1017.6
20260507080143 53 85 1.0 1.0 0.00 0.00 0.00 88 1017.5
20260507075642 53 79 2.0 2.0 0.00 0.00 0.00 88 1017.5
20260507075139 53 90 3.0 3.0 0.00 0.00 0.00 88 1017.5
20260507074636 53 66 0.0 0.0 0.00 0.00 0.00 88 1017.4
20260507074134 53 65 1.0 2.0 0.00 0.00 0.00 88 1017.3
20260507073630 52 78 0.0 1.0 0.00 0.00 0.00 89 1017.6
20260507073127 52 79 0.0 0.0 0.00 0.00 0.00 89 1017.5
20260507072625 52 91 1.0 2.0 0.00 0.00 0.00 90 1017.1
20260507072122 52 88 0.0 0.0 0.00 0.00 0.00 90 1017.2
20260507071619 51 90 0.0 1.0 0.00 0.00 0.00 90 1017.3
20260507071115 51 96 0.0 0.0 0.00 0.00 0.00 90 1017.5
20260507070612 52 91 0.0 0.0 0.00 0.00 0.00 89 1017.5
20260507070109 52 85 1.0 1.0 0.00 0.00 0.00 89 1017.4
20260507065606 53 80 0.0 0.0 0.00 0.00 0.00 89 1017.5
20260507065103 53 83 0.0 0.0 0.00 0.00 0.00 88 1017.5
20260507064600 53 83 0.0 0.0 0.00 0.00 0.00 87 1017.7
20260507064059 53 81 1.0 1.0 0.00 0.00 0.00 88 1017.4
20260507063556 53 86 0.0 0.0 0.00 0.00 0.00 87 1017.6
20260507063048 53 90 2.0 2.0 0.00 0.00 0.00 87 1017.4
20260507062544 53 72 0.0 1.0 0.00 0.00 0.00 88 1017.3
20260507062042 53 74 0.0 1.0 0.00 0.00 0.00 88 1017.3
20260507061539 54 60 0.0 0.0 0.00 0.00 0.00 87 1017.0
20260507061037 53 85 0.0 1.0 0.00 0.00 0.00 87 1016.9
20260507060535 54 70 1.0 3.0 0.00 0.00 0.00 87 1016.7
20260507060031 54 63 2.0 2.0 0.00 0.00 0.00 87 1016.6
20260507055531 54 75 1.0 2.0 0.00 0.00 0.00 87 1016.8
20260507055028 54 75 1.0 1.0 0.00 0.00 0.00 87 1016.8
20260507054524 54 90 1.0 2.0 0.00 0.00 0.00 87 1016.7
20260507054021 54 57 3.0 3.0 0.00 0.00 0.00 87 1016.7
20260507053519 53 92 3.0 3.0 0.00 0.00 0.00 88 1016.3
20260507053017 53 78 1.0 2.0 0.00 0.00 0.00 89 1016.3
20260507052515 52 81 3.0 5.0 0.00 0.00 0.00 90 1016.4
20260507052011 52 84 1.0 1.0 0.00 0.00 0.00 90 1016.4
20260507051509 52 90 0.0 0.0 0.00 0.00 0.00 89 1016.3
20260507051006 53 90 0.0 0.0 0.00 0.00 0.00 88 1016.2
20260507050502 54 88 0.0 0.0 0.00 0.00 0.00 88 1016.2
20260507045959 54 67 1.0 2.0 0.00 0.00 0.00 88 1016.2
20260507045455 54 102 3.0 5.0 0.00 0.00 0.00 87 1016.2
20260507044953 54 95 1.0 2.0 0.00 0.00 0.00 88 1016.3
20260507044449 53 82 2.0 2.0 0.00 0.00 0.00 88 1016.3
20260507043945 54 87 1.0 1.0 0.00 0.00 0.00 87 1016.3
20260507043442 54 84 1.0 2.0 0.00 0.00 0.00 87 1016.6
20260507042938 54 74 0.0 0.0 0.00 0.00 0.00 87 1016.3
20260507042435 55 70 0.0 0.0 0.00 0.00 0.00 86 1016.4
20260507041931 55 52 2.0 2.0 0.00 0.00 0.00 85 1016.6
20260507041427 55 69 1.0 2.0 0.00 0.00 0.00 86 1016.4
20260507040925 55 79 0.0 1.0 0.00 0.00 0.00 86 1016.4
20260507040421 55 79 1.0 1.0 0.00 0.00 0.00 86 1016.7
20260507035917 55 83 1.0 1.0 0.00 0.00 0.00 86 1016.6
20260507035413 55 86 1.0 1.0 0.00 0.00 0.00 86 1016.3
20260507034910 55 70 1.0 3.0 0.00 0.00 0.00 86 1016.1
20260507034407 55 81 2.0 2.0 0.00 0.00 0.00 85 1016.2
20260507033905 55 86 1.0 3.0 0.00 0.00 0.00 85 1016.1
20260507033403 55 84 0.0 0.0 0.00 0.00 0.00 85 1016.1
20260507032859 55 102 0.0 0.0 0.00 0.00 0.00 86 1015.9
20260507032356 55 105 0.0 0.0 0.00 0.00 0.00 85 1016.0
20260507031852 55 84 0.0 0.0 0.00 0.00 0.00 85 1016.0
20260507031349 55 83 0.0 0.0 0.00 0.00 0.00 85 1015.9